T 2011 Oct. 6.74693 TT MPC q 3.6059253 (2000.0) P Q n 0.03238063 Peri. 344.95415 -0.50714851 -0.85467854 a 9.7486814 Node 135.36771 +0.80616087 -0.51597740 e 0.6301115 Incl. 9.09201 +0.30480329 -0.05737525 P 30.4 From 23 observations 2012 Jan. 26-Feb. 21.
m1 = 13.0 + 5 logΔ + 10.0 log r